Regional Weather Roundup
Issued by NWS Charleston, WV

Home | Current Version | Previous Version | Graphics & Text | Print | Product List | Glossary On
Versions: 1 2 3 4 5 6 7 8 9 10 11 12 13 14 15 16 17 18 19 20 21 22 23 24 25 26 27 28 29 30 31 32 33 34 35 36 37 38 39 40 41 42 43 44 45 46 47 48 49 50
000
ASUS41 KRLX 062210
RWRRLX
West Virginia Regional Weather Roundup
National Weather Service Charleston WV
600 PM EDT WED MAY 06 2015

Note: "fair" indicates few or no clouds below 12,000 feet with no
significant weather and/or obstructions to visibility.

WVZ003-062300-
Northern Panhandle of West Virginia

CITY           SKY/WX    TMP DP  RH WIND       PRES   REMARKS
WHEELING       MOSUNNY   81  54  39 NW8       30.13S
$$

WVZ009-062300-
Northwest West Virginia

CITY           SKY/WX    TMP DP  RH WIND       PRES   REMARKS
PARKERSBURG    MOSUNNY   82  54  37 CALM      30.14S
$$

WVZ006-062300-
Western West Virginia

CITY           SKY/WX    TMP DP  RH WIND       PRES   REMARKS
HUNTINGTON     SUNNY     85  51  31 NE6       30.10F
$$

WVZ015-062300-
West Central West Virginia

CITY           SKY/WX    TMP DP  RH WIND       PRES   REMARKS
CHARLESTON     MOSUNNY   86  52  30 W5        30.10F
$$

WVZ022-031-062300-
North Central West Virginia

CITY           SKY/WX    TMP DP  RH WIND       PRES   REMARKS
CLARKSBURG     MOSUNNY   80  57  45 N6        30.12S
MORGANTOWN     SUNNY     84  48  28 NW5       30.13F
$$

WVZ025-035-042-045-062300-
Southern West Virginia

CITY           SKY/WX    TMP DP  RH WIND       PRES   REMARKS
BECKLEY        MOSUNNY   80  48  32 N10       30.19S
LOGAN            N/A     84  52  32 CALM      30.10F
BLUEFIELD      CLOUDY    74  50  42 W9        30.21S
LEWISBURG      PTSUNNY   76  51  41 N7        30.19S
$$

WVZ047-062300-
Northern Mountains of West Virginia

CITY           SKY/WX    TMP DP  RH WIND       PRES   REMARKS
ELKINS         MOSUNNY   81  47  30 MISG      30.16S
$$

WVZ052-062300-
Eastern Panhandle of West Virginia

CITY           SKY/WX    TMP DP  RH WIND       PRES   REMARKS
MARTINSBURG    PTSUNNY   78  64  61 SE7       30.14S
PETERSBURG     MOSUNNY   82  54  38 E6        30.11S
$$


USA.gov is the U.S. government's official web portal to all federal, state and local government web resources and services.